[[{"header":{"parameterUnit":"m.s-1","parameterCategory":1,"la1":30.2991,"la2":30.254,"lo1":-89.0895,"lo2":-89.0444,"dy":0.0017,"dx":0.0017,"nx":28,"ny":28,"refTime":"2023-08-16T03:00:00:Z","depth":0,"parameterNumber":2,"parameterNumberName":"U-component_of_WINDS"},"data":[0,0,0,0,0,0,0,0,0,0,0,0,0,0,0,0,0,0,0,0,0,0,0,0,0,0,0,0,0,0,0,0,0,0,0,0,0,0,0,0,0,0,0,0,0,0,0,0,0,0,0,0,0,0,0,0,0,0,1.3774,1.3775,0,1.3804,1.3804,1.3805,1.3783,1.3782,1.3781,1.378,1.3812,1.3813,1.3815,0,0,0,0,0,0,0,0,0,0,0,0,0,1.37,1.3702,1.3774,1.3775,1.3775,1.3804,1.3805,1.3805,1.3783,1.3782,1.3781,1.3779,1.3811,1.3813,1.3815,0,0,0,0,0,0,0,0,0,0,0,0,0,1.3732,1.3702,1.3774,1.3768,1.3767,1.3804,1.3805,1.3805,1.3783,1.3782,1.378,1.3779,1.381,1.3813,1.3816,1.3861,0,0,1.3824,1.3825,0,0,0,0,0,0,0,0,1.373,1.3734,1.3768,1.3768,1.3768,1.3788,1.379,1.3824,1.3784,1.3777,1.378,1.3778,1.3805,1.3808,1.3817,1.3862,1.3864,1.3824,1.3825,1.3826,1.3827,0,0,0,0,0,0,0,1.3728,1.3733,1.3786,1.3769,1.3768,1.3764,1.3767,1.3796,1.3799,1.3778,1.3776,1.378,1.3805,1.3814,1.3817,1.3864,1.3824,1.3826,1.3828,1.3829,1.395,1.3952,0,0,0,0,0,0,1.3726,1.3731,1.3785,1.3787,1.3745,1.3766,1.3769,1.3783,1.3799,1.38,1.3781,1.3779,1.3811,1.3814,1.3819,1.3874,1.3826,1.3829,1.383,1.3949,1.3951,1.3952,0,0,0,0,0,0,1.3724,1.3731,1.3784,1.3759,1.3765,1.3769,1.3785,1.3785,1.3794,1.3801,1.3802,1.379,1.381,1.3815,1.3851,1.3874,1.383,1.3832,1.3947,1.3949,1.3952,1.3984,0,0,0,0,0,0,1.3722,1.373,1.3747,1.3759,1.3767,1.3815,1.3786,1.3786,1.3799,1.3796,1.381,1.3811,1.3809,1.3847,1.3853,1.3877,1.3835,1.3945,1.3948,1.3951,1.398,1.3987,1.3992,0,0,0,0,0,1.372,1.3755,1.3748,1.3755,1.3787,1.3816,1.3821,1.3817,1.3801,1.3818,1.3823,1.3811,1.3871,1.3851,1.3858,1.3883,1.3943,1.3947,1.395,1.3978,1.3986,1.3992,0,0,0,0,0,0,1.3745,1.3756,1.3749,1.3789,1.3802,1.3813,1.3834,1.3825,1.3844,1.384,1.3836,1.3839,1.3877,1.3884,1.3861,1.3929,1.3904,1.391,1.3923,1.393,1.3936,1.3934,1.3837,0,0,0,0,0,1.3755,1.3778,1.3786,1.3821,1.3828,1.383,1.3842,1.3839,1.3852,1.3858,1.3865,1.3879,1.3902,1.3916,1.3937,1.3982,1.3985,1.4002,1.4008,1.4013,1.4018,1.4043,1.4051,1.3965,1.3965,1.3965,0,0,1.3777,1.3785,1.38,1.3826,1.3836,1.386,1.3835,1.3861,1.3879,1.3862,1.3896,1.3903,1.3918,1.3959,1.3977,1.3966,1.4043,1.4018,1.4022,1.4024,1.4048,1.4056,1.4064,1.3967,1.3967,1.3966,0,0,1.3828,1.3836,1.3866,1.3877,1.3892,1.3894,1.3901,1.3914,1.3917,1.3952,1.3941,1.3962,1.4,1.4012,1.4023,1.4081,1.4072,1.4088,1.412,1.4145,1.4151,1.4157,1.4179,1.4187,1.4093,1.4093,1.4093,0,1.3852,1.3887,1.3883,1.3911,1.3923,1.3909,1.3941,1.3951,1.3973,1.3982,1.3968,1.4017,1.4026,1.4071,1.4085,1.4094,1.4103,1.4087,1.4151,1.4157,1.4162,1.4183,1.4191,1.4095,1.4095,1.4095,1.4095,0,1.3917,1.3942,1.3965,1.3986,1.4001,1.403,1.4032,1.4048,1.4043,1.4047,1.4083,1.4094,1.4118,1.4128,1.4124,1.4172,1.4165,1.4151,1.4127,1.4173,1.4192,1.42,1.4098,1.4097,1.4097,1.4096,0,0,1.3984,1.4004,1.4012,1.4023,1.4039,1.4059,1.4088,1.4111,1.4125,1.4141,1.4166,1.42,1.4188,1.4201,1.4198,1.422,1.4267,1.4204,1.4204,1.4216,1.4322,1.4332,1.4342,1.426,1.4262,1.4263,1.4321,0,1.4036,1.4087,1.4085,1.4133,1.4156,1.4145,1.4171,1.4184,1.4189,1.421,1.4215,1.4239,1.4221,1.4229,1.425,1.4256,1.4288,1.4252,1.4285,1.4286,1.4281,1.4351,1.4362,1.4416,1.4329,1.433,1.4331,0,1.4104,1.4123,1.4173,1.4188,1.4197,1.422,1.4242,1.4262,1.4278,1.428,1.4296,1.429,1.4321,1.4296,1.4339,1.4315,1.4329,1.4334,1.4336,1.4339,1.4311,1.4357,1.4434,1.4442,1.4342,1.4341,1.4341,0,1.4149,1.4186,1.4221,1.423,1.4248,1.4265,1.4273,1.4288,1.4303,1.4322,1.4332,1.4354,1.4367,1.4385,1.4387,1.4368,1.4431,1.4406,1.4434,1.4434,1.4448,1.4447,1.4528,1.4456,1.4456,1.4456,1.4455,0,1.4207,1.4239,1.4242,1.4263,1.4299,1.4297,1.4332,1.4339,1.4352,1.4376,1.4367,1.439,1.439,1.4413,1.4415,1.4451,1.4457,1.446,1.446,1.4461,1.4461,1.4469,1.4466,1.4458,1.4457,1.4457,1.4457,0,1.4263,1.4266,1.4304,1.4318,1.4323,1.4348,1.4361,1.4382,1.4386,1.4417,1.4424,1.443,1.4458,1.4461,1.4492,1.4493,1.4538,1.4534,1.4532,1.4532,1.456,1.4558,1.465,1.4663,1.4582,1.4583,1.4583,0,1.43,1.4324,1.4341,1.4357,1.4366,1.439,1.4406,1.4405,1.4422,1.4443,1.4462,1.4488,1.4509,1.4554,1.4562,1.4587,1.4583,1.4614,1.4587,1.4588,1.4585,1.4583,1.4586,1.4619,1.462,1.4621,1.4622,0,1.4366,1.4367,1.4389,1.4412,1.443,1.4449,1.4466,1.4479,1.4481,1.45,1.4528,1.4544,1.4577,1.4604,1.4629,1.4638,1.4631,1.463,1.4638,1.4639,1.4638,1.464,1.4547,1.4628,1.4627,1.4627,1.4626,1.4626,1.4414,1.4435,1.4451,1.4477,1.449,1.4506,1.4527,1.4535,1.4558,1.4584,1.4583,1.4614,1.4632,1.4664,1.4676,1.4701,1.4691,1.4702,1.4705,1.4708,1.4711,1.4634,1.4705,1.4705,1.4705,1.4705,1.4705,0,1.448,1.449,1.4514,1.4538,1.4559,1.455,1.4569,1.4587,1.4614,1.4631,1.4652,1.4685,1.4711,1.4723,1.4749,1.4767,1.4764,1.4774,1.4773,1.4775,1.4718,1.4709,1.4776,1.4776,1.4776,1.4776,1.4776,1.4776,1.4517,1.4553,1.4556,1.4599,1.4609,1.464,1.4652,1.4667,1.4681,1.4718,1.474,1.4747,1.4762,1.479,1.4814,1.4817,1.4827,1.4839,1.484,1.4786,1.4779,1.4772,1.4764,1.4841,1.4841,1.4895,1.4896,1.4896]},{"header":{"parameterUnit":"m.s-1","parameterCategory":1,"la1":30.2991,"la2":30.254,"lo1":-89.0895,"lo2":-89.0444,"dy":0.0017,"dx":0.0017,"nx":28,"ny":28,"refTime":"2023-08-16T03:00:00:Z","depth":0,"parameterNumber":3,"parameterNumberName":"V-component_of_WINDS"},"data":[0,0,0,0,0,0,0,0,0,0,0,0,0,0,0,0,0,0,0,0,0,0,0,0,0,0,0,0,0,0,0,0,0,0,0,0,0,0,0,0,0,0,0,0,0,0,0,0,0,0,0,0,0,0,0,0,0,0,0.9867,0.9866,0,0.9774,0.9773,0.9772,0.9736,0.9737,0.9737,0.9737,0.9636,0.9634,0.9631,0,0,0,0,0,0,0,0,0,0,0,0,0,1.0008,1.0006,0.9867,0.9866,0.9865,0.9775,0.9773,0.9772,0.9736,0.9737,0.9737,0.9737,0.9637,0.9634,0.963,0,0,0,0,0,0,0,0,0,0,0,0,0,0.9934,1.0005,0.9867,0.9836,0.9833,0.9775,0.9773,0.9772,0.9736,0.9737,0.9737,0.9738,0.9639,0.9634,0.963,0.9594,0,0,0.9616,0.9614,0,0,0,0,0,0,0,0,0.9938,0.9929,0.9842,0.9838,0.9834,0.9768,0.9786,0.9712,0.9736,0.9773,0.9737,0.9738,0.9679,0.9672,0.9653,0.9589,0.9585,0.9616,0.9613,0.9611,0.961,0,0,0,0,0,0,0,0.9943,0.9933,0.983,0.9841,0.9836,0.9825,0.9815,0.9772,0.9725,0.977,0.9767,0.9757,0.9677,0.9657,0.965,0.9584,0.9616,0.9612,0.9609,0.9608,0.9485,0.9484,0,0,0,0,0,0,0.9954,0.9937,0.9833,0.9827,0.9889,0.9822,0.9811,0.9788,0.9725,0.9716,0.9756,0.9755,0.9665,0.9656,0.9647,0.96,0.9611,0.9607,0.9605,0.9486,0.9485,0.9484,0,0,0,0,0,0,0.9958,0.9946,0.9837,0.9882,0.9867,0.982,0.9794,0.9786,0.9767,0.9715,0.9706,0.9745,0.9665,0.9653,0.9608,0.9596,0.9605,0.9601,0.9486,0.9485,0.9485,0.9507,0,0,0,0,0,0,0.9962,0.9947,0.9934,0.9882,0.9865,0.9801,0.9794,0.9784,0.976,0.9758,0.9702,0.9693,0.9664,0.9615,0.9603,0.959,0.9598,0.9487,0.9486,0.9485,0.9507,0.9507,0.9507,0,0,0,0,0,0.9967,0.9943,0.9934,0.9921,0.9848,0.9801,0.9791,0.9759,0.9759,0.9745,0.9712,0.9695,0.96,0.961,0.9597,0.9583,0.9488,0.9486,0.9485,0.9507,0.9507,0.9507,0,0,0,0,0,0,0.9993,0.9936,0.9925,0.9883,0.9848,0.9795,0.9776,0.976,0.9722,0.9722,0.9682,0.967,0.9628,0.9601,0.9614,0.9544,0.9542,0.9538,0.9564,0.9563,0.9563,0.957,0.9594,0,0,0,0,0,0.9995,0.9963,0.9914,0.9882,0.9865,0.9824,0.9802,0.9781,0.9741,0.9725,0.9689,0.9649,0.961,0.9585,0.9547,0.9504,0.949,0.9487,0.9487,0.9487,0.9484,0.9458,0.9456,0.948,0.948,0.948,0,0,0.9997,0.9961,0.9943,0.9886,0.9856,0.9822,0.9811,0.9776,0.975,0.9719,0.9675,0.9647,0.96,0.9556,0.9534,0.9532,0.9474,0.9485,0.9486,0.9482,0.9456,0.9454,0.9452,0.9479,0.9479,0.9479,0,0,0.9983,0.9953,0.9924,0.9894,0.9849,0.9822,0.9815,0.9765,0.9745,0.9701,0.9677,0.9645,0.9579,0.9546,0.9521,0.9495,0.9478,0.9484,0.9483,0.9458,0.9456,0.9454,0.9444,0.9441,0.9481,0.9481,0.9481,0,0.999,0.994,0.991,0.9876,0.9851,0.9824,0.9793,0.9765,0.9709,0.9691,0.969,0.9606,0.9573,0.952,0.9514,0.9495,0.9484,0.9489,0.9459,0.9457,0.9455,0.9445,0.9441,0.9482,0.9481,0.9481,0.9481,0,0.9951,0.9917,0.9898,0.9846,0.9819,0.9787,0.975,0.9726,0.9707,0.968,0.9634,0.9593,0.9546,0.9532,0.9512,0.9476,0.9476,0.9467,0.9464,0.9454,0.9444,0.944,0.9483,0.9483,0.9482,0.9482,0,0,0.995,0.9883,0.9877,0.9853,0.9802,0.9774,0.9739,0.9695,0.9674,0.9637,0.9606,0.9551,0.9543,0.9514,0.9491,0.947,0.9451,0.9464,0.9462,0.9462,0.9407,0.9413,0.9409,0.944,0.9439,0.9438,0.9411,0,0.9928,0.9868,0.984,0.9791,0.9759,0.9733,0.9703,0.9667,0.964,0.9607,0.9577,0.9538,0.9531,0.9514,0.9492,0.9458,0.9439,0.946,0.9409,0.9407,0.9421,0.9404,0.941,0.9386,0.9406,0.9406,0.9405,0,0.9895,0.986,0.9809,0.9761,0.9746,0.972,0.9677,0.9646,0.9604,0.9586,0.9555,0.9533,0.9494,0.9495,0.944,0.9455,0.9432,0.9412,0.941,0.9403,0.9405,0.9395,0.9377,0.9374,0.9399,0.9399,0.94,0,0.9899,0.9838,0.9799,0.978,0.9724,0.9706,0.9681,0.964,0.9615,0.9577,0.956,0.9517,0.9493,0.9459,0.9425,0.9429,0.9373,0.9371,0.9355,0.9356,0.9344,0.9345,0.9321,0.9331,0.9331,0.9331,0.9331,0,0.9877,0.9846,0.98,0.9776,0.9741,0.9708,0.9673,0.9646,0.961,0.9579,0.9554,0.9525,0.9483,0.9448,0.9421,0.9379,0.9368,0.9351,0.9344,0.9353,0.9355,0.9337,0.9337,0.933,0.9331,0.9331,0.9331,0,0.9875,0.9843,0.9799,0.975,0.9737,0.9713,0.967,0.9645,0.9618,0.9579,0.9568,0.9524,0.9482,0.9445,0.9389,0.9371,0.9327,0.9319,0.9342,0.9338,0.9324,0.9325,0.9287,0.9279,0.9296,0.9296,0.9296,0,0.9862,0.9839,0.9788,0.9767,0.9743,0.9709,0.9683,0.965,0.9624,0.9575,0.9556,0.9512,0.9476,0.9409,0.9371,0.9327,0.9317,0.9307,0.931,0.932,0.9316,0.9317,0.9314,0.9306,0.9306,0.9306,0.9306,0,0.9844,0.983,0.9796,0.9756,0.9727,0.9694,0.9659,0.9643,0.9602,0.9575,0.9532,0.9504,0.9448,0.9404,0.9357,0.9329,0.931,0.9306,0.93,0.9308,0.9322,0.9313,0.934,0.9307,0.9306,0.9306,0.9306,0.9306,0.9835,0.9813,0.9774,0.9737,0.9708,0.9676,0.9651,0.9621,0.9586,0.9539,0.952,0.9477,0.9435,0.937,0.9342,0.9306,0.9303,0.9294,0.9292,0.929,0.9291,0.9329,0.9297,0.9297,0.9297,0.9297,0.9297,0,0.9815,0.9789,0.9755,0.9709,0.9679,0.9667,0.9628,0.9604,0.9566,0.953,0.9495,0.9446,0.9403,0.9363,0.9318,0.9297,0.9287,0.9286,0.9287,0.928,0.9297,0.9306,0.9295,0.9295,0.9295,0.9295,0.9295,0.9295,0.9801,0.9762,0.9743,0.9689,0.9663,0.9622,0.96,0.9571,0.9541,0.9489,0.9454,0.9429,0.939,0.9342,0.9302,0.9291,0.9275,0.9276,0.9262,0.9278,0.9279,0.928,0.9288,0.9273,0.9273,0.9249,0.9248,0.9248]}]]